N100JD KBLI-KEUG

Flight info

Callsign N100JD
Flight time 1h 30m
Altitude 19000
Route KLSHN2 KLSHN CVV OLM CVO
Aircraft C414/L-SBDFGRY/S

Departure

Time 2026-05-08 02:44
Airport Bellingham International Airport (KBLI)

Arrival

Time 2026-05-08 04:15
Airport Eugene Airport (KEUG)
Time Latitude Longitude Altitude Speed Heading
2026-05-08 02:18 48.79366 -122.53165 146 ft 0 kts 143°
2026-05-08 02:38 48.79363 -122.53162 146 ft 2 kts 143°
2026-05-08 02:38 48.79338 -122.53151 146 ft 6 kts 195°
2026-05-08 02:39 48.79329 -122.53216 146 ft 9 kts 319°
2026-05-08 02:39 48.79377 -122.53283 146 ft 10 kts 313°
2026-05-08 02:39 48.79426 -122.53357 146 ft 10 kts 321°
2026-05-08 02:39 48.79479 -122.53422 146 ft 10 kts 321°
2026-05-08 02:40 48.79539 -122.53492 146 ft 12 kts 324°
2026-05-08 02:40 48.79614 -122.53510 146 ft 11 kts
2026-05-08 02:40 48.79685 -122.53558 146 ft 12 kts 321°
2026-05-08 02:40 48.79769 -122.53583 146 ft 13 kts 358°
2026-05-08 02:41 48.79866 -122.53585 146 ft 14 kts 359°
2026-05-08 02:41 48.79971 -122.53586 146 ft 16 kts
2026-05-08 02:41 48.80079 -122.53572 146 ft 15 kts
2026-05-08 02:41 48.80151 -122.53578 146 ft 6 kts 340°
2026-05-08 02:42 48.80177 -122.53620 146 ft 6 kts 285°
2026-05-08 02:42 48.80178 -122.53683 147 ft 6 kts 268°
2026-05-08 02:42 48.80170 -122.53751 147 ft 8 kts 233°
2026-05-08 02:42 48.80134 -122.53759 147 ft 3 kts 182°
2026-05-08 02:43 48.80126 -122.53759 147 ft 0 kts 178°
2026-05-08 02:43 48.80039 -122.53757 147 ft 37 kts 179°
2026-05-08 02:44 48.79588 -122.53755 146 ft 90 kts 179°
2026-05-08 02:44 48.78863 -122.53744 316 ft 111 kts 180°
2026-05-08 02:44 48.78088 -122.53741 704 ft 112 kts 180°
2026-05-08 02:44 48.77299 -122.53806 1006 ft 116 kts 194°
2026-05-08 02:45 48.76520 -122.54173 1336 ft 113 kts 195°
2026-05-08 02:45 48.75761 -122.54496 1668 ft 114 kts 195°
2026-05-08 02:45 48.74985 -122.54799 1988 ft 116 kts 193°
2026-05-08 02:45 48.74196 -122.55047 2318 ft 118 kts 192°
2026-05-08 02:46 48.73392 -122.55328 2654 ft 118 kts 194°
2026-05-08 02:46 48.72595 -122.55627 2994 ft 117 kts 193°
2026-05-08 02:46 48.71812 -122.55912 3321 ft 118 kts 193°
2026-05-08 02:46 48.70986 -122.56210 3588 ft 124 kts 193°
2026-05-08 02:47 48.70134 -122.56517 3890 ft 127 kts 192°
2026-05-08 02:47 48.69263 -122.56829 4195 ft 129 kts 192°
2026-05-08 02:47 48.68383 -122.57143 4512 ft 130 kts 193°
2026-05-08 02:47 48.67495 -122.57460 4828 ft 132 kts 195°
2026-05-08 02:48 48.66598 -122.57780 5133 ft 133 kts 194°
2026-05-08 02:48 48.65693 -122.58101 5444 ft 133 kts 194°
2026-05-08 02:48 48.64789 -122.58416 5758 ft 133 kts 193°
2026-05-08 02:48 48.63882 -122.58734 6075 ft 134 kts 193°
2026-05-08 02:49 48.62987 -122.59047 6386 ft 134 kts 193°
2026-05-08 02:49 48.62082 -122.59364 6684 ft 134 kts 193°
2026-05-08 02:49 48.61174 -122.59682 6975 ft 134 kts 192°
2026-05-08 02:49 48.60258 -122.60002 7237 ft 136 kts 193°
2026-05-08 02:50 48.59332 -122.60327 7526 ft 137 kts 193°
2026-05-08 02:50 48.58402 -122.60652 7809 ft 138 kts 193°
2026-05-08 02:50 48.57480 -122.60974 8092 ft 138 kts 193°
2026-05-08 02:50 48.56541 -122.61302 8381 ft 139 kts 193°
2026-05-08 02:51 48.55598 -122.61632 8671 ft 139 kts 193°
2026-05-08 02:51 48.54651 -122.61962 8967 ft 139 kts 193°
2026-05-08 02:51 48.53704 -122.62293 9267 ft 140 kts 193°
2026-05-08 02:51 48.52756 -122.62624 9568 ft 140 kts 193°
2026-05-08 02:52 48.51805 -122.62955 9868 ft 140 kts 193°
2026-05-08 02:52 48.50865 -122.63283 10135 ft 141 kts 193°
2026-05-08 02:52 48.49907 -122.63617 10400 ft 141 kts 193°
2026-05-08 02:52 48.48949 -122.63951 10673 ft 141 kts 193°
2026-05-08 02:53 48.47990 -122.64285 10945 ft 141 kts 193°
2026-05-08 02:53 48.47029 -122.64619 11218 ft 142 kts 193°
2026-05-08 02:53 48.46068 -122.64953 11492 ft 142 kts 193°
2026-05-08 02:53 48.45103 -122.65289 11775 ft 142 kts 194°
2026-05-08 02:54 48.44150 -122.65621 12047 ft 142 kts 194°
2026-05-08 02:54 48.43183 -122.65957 12325 ft 143 kts 194°
2026-05-08 02:54 48.42213 -122.66294 12602 ft 143 kts 194°
2026-05-08 02:54 48.41240 -122.66632 12887 ft 143 kts 194°
2026-05-08 02:55 48.40264 -122.66970 13169 ft 144 kts 194°
2026-05-08 02:55 48.38640 -122.67534 13640 ft 144 kts 194°
2026-05-08 02:55 48.37342 -122.67984 14004 ft 145 kts 194°
2026-05-08 02:56 48.36360 -122.68324 14254 ft 145 kts 195°
2026-05-08 02:56 48.35378 -122.68664 14510 ft 144 kts 195°
2026-05-08 02:56 48.34729 -122.68889 14679 ft 144 kts 195°
2026-05-08 02:56 48.33752 -122.69228 14931 ft 143 kts 195°
2026-05-08 02:57 48.32778 -122.69565 15178 ft 143 kts 195°
2026-05-08 02:57 48.31810 -122.69900 15426 ft 142 kts 195°
2026-05-08 02:57 48.30845 -122.70233 15668 ft 142 kts 196°
2026-05-08 02:57 48.29898 -122.70560 15904 ft 141 kts 196°
2026-05-08 02:58 48.28945 -122.70890 16147 ft 140 kts 196°
2026-05-08 02:58 48.27995 -122.71218 16390 ft 140 kts 196°
2026-05-08 02:58 48.27034 -122.71550 16631 ft 142 kts 196°
2026-05-08 02:58 48.26068 -122.71884 16886 ft 143 kts 196°
2026-05-08 02:59 48.25099 -122.72217 17139 ft 143 kts 196°
2026-05-08 02:59 48.24114 -122.72485 17394 ft 145 kts 187°
2026-05-08 02:59 48.23104 -122.72612 17638 ft 146 kts 190°
2026-05-08 02:59 48.22097 -122.72768 17901 ft 146 kts 189°
2026-05-08 03:00 48.21096 -122.72915 18148 ft 146 kts 188°
2026-05-08 03:00 48.20079 -122.73061 18386 ft 148 kts 189°
2026-05-08 03:00 48.19043 -122.73212 18592 ft 150 kts 190°
2026-05-08 03:00 48.18000 -122.73361 18798 ft 152 kts 190°
2026-05-08 03:01 48.16937 -122.73512 18990 ft 154 kts 190°
2026-05-08 03:01 48.15823 -122.73674 19020 ft 168 kts 189°
2026-05-08 03:01 48.14612 -122.73848 19026 ft 181 kts 190°
2026-05-08 03:01 48.13324 -122.74033 19016 ft 191 kts 189°
2026-05-08 03:02 48.11971 -122.74224 19018 ft 198 kts 189°
2026-05-08 03:02 48.10606 -122.74416 19013 ft 200 kts 189°
2026-05-08 03:02 48.09213 -122.74613 19003 ft 202 kts 189°
2026-05-08 03:02 48.07814 -122.74811 19003 ft 202 kts 189°
2026-05-08 03:03 48.06411 -122.75010 18996 ft 203 kts 189°
2026-05-08 03:03 48.05003 -122.75210 18993 ft 203 kts 189°
2026-05-08 03:03 48.03597 -122.75409 18986 ft 203 kts 189°
2026-05-08 03:03 48.02185 -122.75606 18969 ft 203 kts 191°
2026-05-08 03:04 48.00795 -122.75804 18968 ft 203 kts 191°
2026-05-08 03:04 47.99394 -122.76006 18967 ft 204 kts 191°
2026-05-08 03:04 47.97959 -122.76207 18963 ft 205 kts 191°
2026-05-08 03:04 47.96541 -122.76408 18962 ft 205 kts 191°
2026-05-08 03:05 47.95123 -122.76606 19019 ft 202 kts 191°
2026-05-08 03:05 47.93729 -122.76802 19057 ft 201 kts 191°
2026-05-08 03:05 47.92332 -122.77001 19053 ft 202 kts 191°
2026-05-08 03:05 47.90924 -122.77200 19050 ft 203 kts 191°
2026-05-08 03:06 47.89512 -122.77399 19047 ft 204 kts 191°
2026-05-08 03:06 47.88116 -122.77595 19047 ft 204 kts 191°
2026-05-08 03:06 47.86695 -122.77796 19044 ft 205 kts 191°
2026-05-08 03:06 47.85269 -122.77996 19044 ft 206 kts 191°
2026-05-08 03:07 47.83843 -122.78197 19042 ft 206 kts 191°
2026-05-08 03:07 47.82411 -122.78399 19043 ft 207 kts 191°
2026-05-08 03:07 47.80976 -122.78601 19079 ft 207 kts 191°
2026-05-08 03:07 47.79531 -122.78805 19081 ft 208 kts 191°
2026-05-08 03:08 47.78085 -122.79005 19084 ft 208 kts 191°
2026-05-08 03:08 47.76656 -122.79204 19085 ft 209 kts 191°
2026-05-08 03:08 47.75207 -122.79408 19087 ft 209 kts 191°
2026-05-08 03:08 47.73754 -122.79612 19089 ft 209 kts 191°
2026-05-08 03:09 47.72303 -122.79815 19086 ft 209 kts 191°
2026-05-08 03:09 47.70857 -122.80017 19087 ft 209 kts 191°
2026-05-08 03:09 47.69408 -122.80220 19089 ft 209 kts 191°
2026-05-08 03:09 47.67963 -122.80422 19100 ft 208 kts 191°
2026-05-08 03:10 47.66519 -122.80623 19095 ft 208 kts 192°
2026-05-08 03:10 47.65078 -122.80825 19095 ft 208 kts 192°
2026-05-08 03:10 47.63634 -122.81026 19094 ft 208 kts 192°
2026-05-08 03:10 47.62190 -122.81227 19095 ft 208 kts 192°
2026-05-08 03:11 47.60763 -122.81427 19100 ft 209 kts 192°
2026-05-08 03:11 47.59309 -122.81629 19100 ft 209 kts 192°
2026-05-08 03:11 47.57858 -122.81830 19100 ft 209 kts 192°
2026-05-08 03:11 47.56406 -122.82034 19106 ft 209 kts 192°
2026-05-08 03:12 47.54952 -122.82236 19111 ft 210 kts 192°
2026-05-08 03:12 47.53495 -122.82439 19115 ft 210 kts 192°
2026-05-08 03:12 47.52037 -122.82640 19116 ft 210 kts 192°
2026-05-08 03:12 47.50597 -122.82840 19113 ft 210 kts 192°
2026-05-08 03:13 47.49142 -122.83042 19108 ft 210 kts 192°
2026-05-08 03:13 47.47685 -122.83242 19105 ft 209 kts 192°
2026-05-08 03:13 47.46235 -122.83446 19103 ft 209 kts 192°
2026-05-08 03:13 47.44784 -122.83648 19101 ft 209 kts 192°
2026-05-08 03:14 47.43331 -122.83848 19103 ft 209 kts 192°
2026-05-08 03:14 47.41876 -122.84049 19101 ft 210 kts 192°
2026-05-08 03:14 47.40438 -122.84248 19101 ft 210 kts 192°
2026-05-08 03:14 47.38984 -122.84449 19092 ft 210 kts 192°
2026-05-08 03:15 47.37532 -122.84650 19088 ft 210 kts 192°
2026-05-08 03:15 47.36077 -122.84848 19089 ft 209 kts 192°
2026-05-08 03:15 47.34628 -122.85051 19089 ft 209 kts 192°
2026-05-08 03:15 47.33178 -122.85250 19076 ft 209 kts 192°
2026-05-08 03:16 47.31731 -122.85449 19088 ft 209 kts 192°
2026-05-08 03:16 47.30282 -122.85649 19087 ft 208 kts 192°
2026-05-08 03:16 47.28857 -122.85845 19086 ft 208 kts 192°
2026-05-08 03:16 47.27413 -122.86044 19085 ft 208 kts 192°
2026-05-08 03:17 47.25973 -122.86242 19082 ft 208 kts 192°
2026-05-08 03:17 47.24530 -122.86440 19082 ft 208 kts 192°
2026-05-08 03:17 47.23086 -122.86639 19082 ft 208 kts 192°
2026-05-08 03:17 47.21646 -122.86836 19082 ft 208 kts 192°
2026-05-08 03:18 47.20202 -122.87035 19078 ft 208 kts 192°
2026-05-08 03:18 47.18761 -122.87232 19079 ft 208 kts 192°
2026-05-08 03:18 47.17316 -122.87430 19080 ft 208 kts 192°
2026-05-08 03:18 47.15871 -122.87629 19080 ft 209 kts 192°
2026-05-08 03:19 47.14444 -122.87824 19084 ft 208 kts 192°
2026-05-08 03:19 47.12994 -122.88022 19084 ft 208 kts 192°
2026-05-08 03:19 47.11550 -122.88220 19085 ft 208 kts 192°
2026-05-08 03:19 47.10102 -122.88418 19076 ft 209 kts 192°
2026-05-08 03:20 47.08651 -122.88616 19075 ft 209 kts 192°
2026-05-08 03:20 47.07220 -122.88812 19074 ft 209 kts 192°
2026-05-08 03:20 47.05773 -122.89009 19074 ft 209 kts 192°
2026-05-08 03:20 47.04322 -122.89207 19074 ft 209 kts 192°
2026-05-08 03:21 47.02866 -122.89405 19076 ft 209 kts 192°
2026-05-08 03:21 47.01414 -122.89603 19076 ft 209 kts 192°
2026-05-08 03:21 46.99963 -122.89801 19075 ft 209 kts 192°
2026-05-08 03:21 46.98513 -122.89997 19075 ft 209 kts 191°
2026-05-08 03:22 46.97086 -122.90198 19072 ft 207 kts 193°
2026-05-08 03:22 46.95663 -122.90484 19072 ft 207 kts 192°
2026-05-08 03:22 46.94225 -122.90682 19074 ft 207 kts 192°
2026-05-08 03:22 46.92792 -122.90902 19073 ft 207 kts 192°
2026-05-08 03:23 46.91361 -122.91140 19076 ft 206 kts 193°
2026-05-08 03:23 46.89933 -122.91378 19076 ft 206 kts 192°
2026-05-08 03:23 46.88503 -122.91616 19076 ft 207 kts 192°
2026-05-08 03:23 46.87092 -122.91848 19077 ft 207 kts 192°
2026-05-08 03:24 46.85660 -122.92084 19067 ft 207 kts 192°
2026-05-08 03:24 46.84232 -122.92320 19079 ft 207 kts 192°
2026-05-08 03:24 46.82802 -122.92556 19080 ft 207 kts 192°
2026-05-08 03:24 46.81368 -122.92791 19087 ft 207 kts 192°
2026-05-08 03:25 46.79937 -122.93028 19088 ft 207 kts 192°
2026-05-08 03:25 46.78504 -122.93265 19088 ft 207 kts 192°
2026-05-08 03:25 46.77070 -122.93501 19087 ft 207 kts 192°
2026-05-08 03:25 46.75654 -122.93733 19087 ft 207 kts 192°
2026-05-08 03:26 46.74216 -122.93969 19085 ft 207 kts 192°
2026-05-08 03:26 46.72772 -122.94207 19085 ft 208 kts 192°
2026-05-08 03:26 46.71333 -122.94443 19085 ft 208 kts 192°
2026-05-08 03:26 46.69913 -122.94676 19086 ft 208 kts 192°
2026-05-08 03:27 46.68477 -122.94912 19086 ft 208 kts 192°
2026-05-08 03:27 46.67033 -122.95149 19087 ft 208 kts 192°
2026-05-08 03:27 46.65594 -122.95385 19087 ft 208 kts 192°
2026-05-08 03:27 46.64155 -122.95620 19087 ft 208 kts 192°
2026-05-08 03:28 46.62716 -122.95855 19084 ft 207 kts 192°
2026-05-08 03:28 46.61281 -122.96090 19084 ft 207 kts 192°
2026-05-08 03:28 46.59850 -122.96324 19084 ft 207 kts 192°
2026-05-08 03:28 46.58421 -122.96557 19084 ft 207 kts 192°
2026-05-08 03:29 46.56989 -122.96792 19085 ft 207 kts 192°
2026-05-08 03:29 46.55555 -122.97027 19085 ft 207 kts 192°
2026-05-08 03:29 46.54144 -122.97255 19086 ft 207 kts 192°
2026-05-08 03:29 46.52710 -122.97489 19086 ft 207 kts 192°
2026-05-08 03:30 46.49848 -122.97957 19089 ft 207 kts 192°
2026-05-08 03:30 46.46990 -122.98421 19092 ft 206 kts 192°
2026-05-08 03:31 46.44132 -122.98886 19092 ft 206 kts 192°
2026-05-08 03:31 46.41287 -122.99350 19096 ft 207 kts 192°
2026-05-08 03:32 46.39854 -122.99581 19095 ft 206 kts 193°
2026-05-08 03:32 46.38424 -122.99813 19094 ft 207 kts 192°
2026-05-08 03:32 46.37006 -123.00043 19096 ft 207 kts 192°
2026-05-08 03:32 46.35572 -123.00277 19100 ft 207 kts 193°
2026-05-08 03:33 46.34137 -123.00513 19092 ft 208 kts 192°
2026-05-08 03:33 46.32696 -123.00739 19091 ft 208 kts 193°
2026-05-08 03:33 46.31277 -123.00968 19093 ft 208 kts 193°
2026-05-08 03:33 46.29836 -123.01203 19090 ft 207 kts 193°
2026-05-08 03:34 46.28404 -123.01435 19087 ft 207 kts 193°
2026-05-08 03:34 46.26977 -123.01663 19093 ft 206 kts 193°
2026-05-08 03:34 46.25553 -123.01896 19088 ft 205 kts 193°
2026-05-08 03:34 46.24129 -123.02127 19088 ft 206 kts 193°
2026-05-08 03:35 46.22721 -123.02352 19088 ft 206 kts 193°
2026-05-08 03:35 46.21295 -123.02583 19088 ft 207 kts 193°
2026-05-08 03:35 46.19864 -123.02813 19087 ft 206 kts 193°
2026-05-08 03:35 46.18439 -123.03042 19089 ft 206 kts 193°
2026-05-08 03:36 46.17007 -123.03273 19088 ft 206 kts 193°
2026-05-08 03:36 46.15581 -123.03503 19087 ft 206 kts 193°
2026-05-08 03:36 46.14149 -123.03733 19090 ft 206 kts 193°
2026-05-08 03:36 46.12722 -123.03962 19085 ft 206 kts 193°
2026-05-08 03:37 46.11295 -123.04192 19089 ft 206 kts 193°
2026-05-08 03:37 46.09869 -123.04419 19087 ft 206 kts 193°
2026-05-08 03:37 46.08442 -123.04649 19089 ft 207 kts 193°
2026-05-08 03:37 46.07029 -123.04876 19090 ft 207 kts 193°
2026-05-08 03:38 46.05597 -123.05107 19093 ft 207 kts 193°
2026-05-08 03:38 46.04162 -123.05334 19089 ft 207 kts 193°
2026-05-08 03:38 46.02729 -123.05564 19092 ft 207 kts 193°
2026-05-08 03:38 46.01289 -123.05796 19095 ft 207 kts 193°
2026-05-08 03:39 45.99874 -123.06025 19093 ft 207 kts 193°
2026-05-08 03:39 45.98440 -123.06249 19092 ft 207 kts 193°
2026-05-08 03:39 45.97008 -123.06478 19092 ft 207 kts 193°
2026-05-08 03:39 45.95577 -123.06708 19093 ft 207 kts 193°
2026-05-08 03:40 45.94146 -123.06936 19091 ft 207 kts 193°
2026-05-08 03:40 45.92714 -123.07165 19074 ft 207 kts 193°
2026-05-08 03:40 45.91375 -123.07379 19073 ft 207 kts 193°
2026-05-08 03:40 45.89944 -123.07606 19072 ft 207 kts 193°
2026-05-08 03:41 45.88514 -123.07834 19073 ft 207 kts 193°
2026-05-08 03:41 45.87080 -123.08064 19072 ft 207 kts 193°
2026-05-08 03:41 45.85643 -123.08294 19073 ft 208 kts 193°
2026-05-08 03:41 45.84202 -123.08519 19065 ft 207 kts 193°
2026-05-08 03:42 45.82766 -123.08747 19064 ft 208 kts 193°
2026-05-08 03:42 45.81347 -123.08977 19067 ft 208 kts 193°
2026-05-08 03:42 45.79907 -123.09206 19066 ft 208 kts 193°
2026-05-08 03:42 45.78460 -123.09430 19064 ft 208 kts 193°
2026-05-08 03:43 45.77018 -123.09661 19065 ft 207 kts 193°
2026-05-08 03:43 45.75585 -123.09891 19064 ft 207 kts 193°
2026-05-08 03:43 45.74149 -123.10114 19061 ft 207 kts 193°
2026-05-08 03:43 45.72715 -123.10342 19063 ft 207 kts 193°
2026-05-08 03:44 45.71279 -123.10570 19066 ft 207 kts 193°
2026-05-08 03:44 45.69843 -123.10798 19062 ft 208 kts 193°
2026-05-08 03:44 45.68423 -123.11019 19059 ft 208 kts 193°
2026-05-08 03:44 45.66987 -123.11250 19064 ft 207 kts 193°
2026-05-08 03:45 45.65549 -123.11475 19061 ft 207 kts 193°
2026-05-08 03:45 45.64113 -123.11705 19060 ft 207 kts 193°
2026-05-08 03:45 45.62680 -123.11932 19060 ft 207 kts 193°
2026-05-08 03:45 45.61246 -123.12156 19060 ft 207 kts 193°
2026-05-08 03:46 45.59812 -123.12382 19059 ft 207 kts 193°
2026-05-08 03:46 45.58394 -123.12605 19058 ft 207 kts 193°
2026-05-08 03:46 45.56960 -123.12831 19058 ft 207 kts 193°
2026-05-08 03:46 45.55527 -123.13057 19057 ft 207 kts 193°
2026-05-08 03:47 45.54094 -123.13282 19058 ft 207 kts 193°
2026-05-08 03:47 45.52665 -123.13507 19057 ft 206 kts 193°
2026-05-08 03:47 45.51235 -123.13732 19057 ft 207 kts 193°
2026-05-08 03:47 45.49802 -123.13957 19057 ft 207 kts 193°
2026-05-08 03:48 45.48388 -123.14179 19057 ft 207 kts 193°
2026-05-08 03:48 45.46961 -123.14402 19057 ft 206 kts 193°
2026-05-08 03:48 45.45536 -123.14642 19056 ft 206 kts 194°
2026-05-08 03:48 45.44105 -123.14882 19056 ft 207 kts 194°
2026-05-08 03:49 45.42672 -123.15107 19058 ft 207 kts 193°
2026-05-08 03:49 45.41244 -123.15328 19059 ft 207 kts 193°
2026-05-08 03:49 45.39812 -123.15552 19060 ft 207 kts 193°
2026-05-08 03:49 45.38380 -123.15776 19061 ft 207 kts 193°
2026-05-08 03:50 45.36944 -123.16000 19060 ft 207 kts 193°
2026-05-08 03:50 45.35527 -123.16221 19059 ft 207 kts 194°
2026-05-08 03:50 45.34093 -123.16444 19058 ft 207 kts 194°
2026-05-08 03:50 45.33145 -123.16592 19058 ft 207 kts 194°
2026-05-08 03:51 45.31710 -123.16816 19057 ft 207 kts 194°
2026-05-08 03:51 45.30279 -123.17039 19058 ft 207 kts 194°
2026-05-08 03:51 45.28845 -123.17261 19056 ft 207 kts 194°
2026-05-08 03:51 45.27416 -123.17484 19056 ft 207 kts 194°
2026-05-08 03:52 45.25518 -123.17779 19056 ft 207 kts 194°
2026-05-08 03:52 45.24551 -123.17929 19056 ft 207 kts 194°
2026-05-08 03:52 45.23123 -123.18150 19056 ft 207 kts 194°
2026-05-08 03:52 45.21692 -123.18373 19056 ft 206 kts 194°
2026-05-08 03:53 45.20280 -123.18592 19056 ft 206 kts 194°
2026-05-08 03:53 45.18855 -123.18812 19055 ft 206 kts 194°
2026-05-08 03:53 45.17431 -123.19033 19054 ft 205 kts 194°
2026-05-08 03:53 45.16010 -123.19253 19054 ft 205 kts 194°
2026-05-08 03:54 45.14576 -123.19478 18945 ft 210 kts 194°
2026-05-08 03:54 45.13093 -123.19711 18739 ft 218 kts 193°
2026-05-08 03:54 45.11563 -123.19946 18511 ft 224 kts 193°
2026-05-08 03:54 45.10019 -123.20184 18286 ft 227 kts 193°
2026-05-08 03:55 45.08439 -123.20426 18037 ft 229 kts 193°
2026-05-08 03:55 45.06842 -123.20672 17790 ft 230 kts 193°
2026-05-08 03:55 45.05246 -123.20918 17548 ft 230 kts 193°
2026-05-08 03:55 45.03658 -123.21163 17313 ft 229 kts 193°
2026-05-08 03:56 45.02074 -123.21407 17074 ft 228 kts 193°
2026-05-08 03:56 45.00516 -123.21647 16841 ft 227 kts 193°
2026-05-08 03:56 44.98945 -123.21889 16609 ft 227 kts 193°
2026-05-08 03:56 44.97372 -123.22131 16369 ft 226 kts 193°
2026-05-08 03:57 44.95805 -123.22376 16139 ft 225 kts 193°
2026-05-08 03:57 44.94253 -123.22615 15916 ft 224 kts 193°
2026-05-08 03:57 44.92726 -123.22848 15696 ft 223 kts 193°
2026-05-08 03:57 44.91186 -123.23085 15471 ft 222 kts 193°
2026-05-08 03:58 44.89649 -123.23321 15250 ft 222 kts 193°
2026-05-08 03:58 44.88114 -123.23556 15032 ft 221 kts 193°
2026-05-08 03:58 44.86582 -123.23791 14804 ft 221 kts 193°
2026-05-08 03:58 44.85053 -123.24026 14590 ft 220 kts 193°
2026-05-08 03:59 44.83530 -123.24259 14378 ft 220 kts 193°
2026-05-08 03:59 44.82025 -123.24489 14176 ft 220 kts 193°
2026-05-08 03:59 44.80504 -123.24721 13968 ft 219 kts 193°
2026-05-08 03:59 44.78989 -123.24953 13760 ft 219 kts 193°
2026-05-08 04:00 44.77477 -123.25184 13524 ft 218 kts 193°
2026-05-08 04:00 44.75967 -123.25416 13297 ft 218 kts 192°
2026-05-08 04:00 44.74458 -123.25645 13071 ft 217 kts 192°
2026-05-08 04:00 44.72978 -123.25871 12858 ft 216 kts 192°
2026-05-08 04:01 44.71485 -123.26099 12652 ft 215 kts 192°
2026-05-08 04:01 44.69996 -123.26326 12436 ft 214 kts 192°
2026-05-08 04:01 44.68512 -123.26551 12213 ft 214 kts 192°
2026-05-08 04:01 44.67036 -123.26776 12006 ft 213 kts 192°
2026-05-08 04:02 44.65561 -123.27003 11813 ft 212 kts 192°
2026-05-08 04:02 44.64089 -123.27222 11607 ft 212 kts 191°
2026-05-08 04:02 44.62647 -123.27436 11361 ft 211 kts 192°
2026-05-08 04:02 44.61187 -123.27672 11157 ft 211 kts 192°
2026-05-08 04:03 44.59731 -123.27893 10956 ft 210 kts 192°
2026-05-08 04:03 44.56822 -123.28329 10567 ft 209 kts 192°
2026-05-08 04:03 44.55376 -123.28548 10373 ft 209 kts 192°
2026-05-08 04:04 44.53933 -123.28765 10173 ft 208 kts 191°
2026-05-08 04:04 44.52495 -123.28982 9979 ft 207 kts 191°
2026-05-08 04:04 44.51061 -123.29199 9769 ft 207 kts 191°
2026-05-08 04:04 44.49629 -123.29408 9559 ft 206 kts 191°
2026-05-08 04:05 44.48206 -123.29624 9350 ft 205 kts 193°
2026-05-08 04:05 44.46815 -123.30035 9118 ft 204 kts 199°
2026-05-08 04:05 44.45439 -123.30499 8870 ft 204 kts 197°
2026-05-08 04:05 44.44066 -123.30907 8628 ft 204 kts 196°
2026-05-08 04:06 44.42677 -123.31306 8382 ft 203 kts 195°
2026-05-08 04:06 44.41296 -123.31704 8144 ft 202 kts 196°
2026-05-08 04:06 44.39919 -123.32104 7907 ft 201 kts 196°
2026-05-08 04:06 44.38547 -123.32503 7670 ft 201 kts 196°
2026-05-08 04:07 44.37194 -123.32897 7438 ft 200 kts 197°
2026-05-08 04:07 44.35810 -123.33124 7186 ft 204 kts 180°
2026-05-08 04:07 44.34398 -123.32869 6955 ft 203 kts 175°
2026-05-08 04:07 44.33005 -123.32566 6722 ft 202 kts 175°
2026-05-08 04:08 44.31621 -123.32264 6510 ft 201 kts 175°
2026-05-08 04:08 44.30243 -123.31953 6262 ft 200 kts 174°
2026-05-08 04:08 44.28879 -123.31631 6027 ft 197 kts 174°
2026-05-08 04:08 44.27537 -123.31274 5793 ft 195 kts 168°
2026-05-08 04:09 44.26274 -123.30594 5510 ft 199 kts 157°
2026-05-08 04:09 44.25064 -123.29712 5383 ft 192 kts 156°
2026-05-08 04:09 44.23914 -123.28885 5321 ft 177 kts 158°
2026-05-08 04:09 44.22792 -123.28262 4942 ft 171 kts 166°
2026-05-08 04:10 44.21664 -123.27733 4474 ft 172 kts 163°
2026-05-08 04:10 44.20546 -123.27173 4067 ft 169 kts 163°
2026-05-08 04:10 44.19434 -123.26631 3619 ft 169 kts 162°
2026-05-08 04:10 44.18322 -123.26087 3187 ft 169 kts 162°
2026-05-08 04:11 44.17219 -123.25547 2799 ft 167 kts 162°
2026-05-08 04:11 44.16122 -123.25045 2449 ft 165 kts 163°
2026-05-08 04:11 44.15053 -123.24578 2172 ft 160 kts 165°
2026-05-08 04:11 44.13984 -123.24340 1839 ft 153 kts 177°
2026-05-08 04:12 44.12947 -123.24293 1624 ft 143 kts 180°
2026-05-08 04:12 44.11978 -123.24291 1485 ft 136 kts 181°
2026-05-08 04:12 44.11023 -123.24342 1281 ft 137 kts 184°
2026-05-08 04:12 44.10080 -123.24445 1173 ft 132 kts 186°
2026-05-08 04:13 44.09171 -123.24536 1070 ft 128 kts 176°
2026-05-08 04:13 44.08513 -123.23932 1033 ft 117 kts 111°
2026-05-08 04:13 44.08464 -123.22820 967 ft 113 kts 88°
2026-05-08 04:13 44.08691 -123.21883 993 ft 101 kts 31°
2026-05-08 04:14 44.09397 -123.21844 800 ft 106 kts 356°
2026-05-08 04:14 44.10141 -123.21847 649 ft 107 kts 357°
2026-05-08 04:14 44.10701 -123.21873 521 ft 108 kts 358°
2026-05-08 04:14 44.10832 -123.21877 501 ft 108 kts 358°
2026-05-08 04:15 44.11568 -123.21886 362 ft 102 kts 359°
2026-05-08 04:15 44.12169 -123.21893 351 ft 73 kts 359°
2026-05-08 04:15 44.12467 -123.21884 354 ft 18 kts 27°
2026-05-08 04:15 44.12485 -123.21756 352 ft 10 kts 90°
2026-05-08 04:16 44.12486 -123.21747 352 ft 0 kts 78°
2026-05-08 04:16 44.12486 -123.21743 352 ft 2 kts 78°
2026-05-08 04:16 44.12468 -123.21711 358 ft 9 kts 185°
2026-05-08 04:16 44.12392 -123.21710 353 ft 12 kts 178°
2026-05-08 04:17 44.12300 -123.21709 354 ft 14 kts 179°
2026-05-08 04:17 44.12197 -123.21707 354 ft 16 kts 178°
2026-05-08 04:17 44.12068 -123.21704 352 ft 20 kts 179°
2026-05-08 04:17 44.11926 -123.21701 357 ft 20 kts 181°
2026-05-08 04:18 44.11779 -123.21701 351 ft 22 kts 178°
2026-05-08 04:18 44.11638 -123.21697 356 ft 19 kts 178°
2026-05-08 04:18 44.11553 -123.21680 358 ft 8 kts 122°
2026-05-08 04:18 44.11578 -123.21627 356 ft 9 kts
2026-05-08 04:19 44.11654 -123.21628 352 ft 13 kts 357°
2026-05-08 04:19 44.11701 -123.21608 355 ft 3 kts 48°
2026-05-08 04:19 44.11712 -123.21588 356 ft 3 kts 68°
2026-05-08 04:19 44.11722 -123.21562 353 ft 2 kts 50°
2026-05-08 04:20 44.11732 -123.21543 355 ft 3 kts 68°
2026-05-08 04:20 44.11735 -123.21526 356 ft 0 kts 88°
2026-05-08 04:20 44.11733 -123.21510 355 ft 4 kts 98°
2026-05-08 04:20 44.11741 -123.21494 356 ft 2 kts 306°
2026-05-08 04:21 44.11745 -123.21501 361 ft 0 kts 309°